Tracking 29090 objects as of 15-Jul-2024
HD Live streaming from Space Station
objects crossing your sky now

STARLINK-30200

Track STARLINK-30200 now!
10-day predictions
STARLINK-30200 is classified as:


NORAD ID: 57306
Int'l Code: 2023-096S
Perigee: 564.6 km
Apogee: 567.8 km
Inclination: 43.0 °
Period: 95.8 minutes
Semi major axis: 6937 km
RCS: Unknown
Launch date: July 10, 2023
Source: United States (US)
Launch site: AIR FORCE EASTERN TEST RANGE (AFETR)
Your satellite tracking list
Your tracking list is empty




NASA's NSSDC Master Catalog

Two Line Element Set (TLE):
1 57306U 23096S   24196.56840548  .00000570  00000-0  57304-4 0  9998
2 57306  43.0045 260.2313 0002262 261.1633  98.8953 15.02537033 55809
Source of the keplerian elements: AFSPC